Location: Haut Kerinec
(48.0623°N, 4.4081°W)
Time: 20:50:39
(UTC+00:00)

Cosmos 2279 Rocket - Pass Details

Date: 01 June 2020
Orbit: 963 x 980 km, 82.9° (Epoch: 11 July)

Event Time Altitude Azimuth Distance (km) Brightness Sun altitude
Rises 20:33:37 0° 352° (N) 3,686 7.8 -4.0°
Reaches altitude 10° 20:36:11 10° 356° (N) 2,732 7.1 -4.3°
Maximum altitude 20:42:24 63° 78° (ENE) 1,077 4.1 -5.1°
Drops below altitude 10° 20:48:32 10° 159° (SSE) 2,702 5.8 -5.8°
Enters shadow 20:50:19 - 162° (SSE) 3,364 6.3 -6.1°
